Preview of NWS' New Version of Forecast
This preview is not operational and should not be used for support decisions.
Latest weather observations around

Mount Shasta (KMHS)

Using English Units (Switch to International System of Units)
Date/ Time (PDT) Wind (mph) Vis. (mi) Weather Sky Cond. Temp (°F) Rel. Humidity Wind Chill (°F) Heat Index (°F) Pressure Precip. (in)
Air Dwpt 6 hour Altimeter (inHg) Sea level (inHg) 1 hr 3 hr 6 hr
Max Min
Jun 21 09:56 6 10 Clear CLR 73 53     50%   72 30.12 30.08      
Jun 21 08:56 3 10 Clear CLR 70 55     59%     30.12 30.09      
Jun 21 07:56 Calm 10 Clear CLR 64 53     67%     30.12 30.09      
Jun 21 06:56 Calm 10 Clear CLR 53 49     86%     30.12 30.09      
Jun 21 05:56 Calm 10 Clear CLR 50 46     86%     30.11 30.09      
Jun 21 04:56 Calm 10 Clear CLR 49 46     90%     30.1 30.08      
Jun 21 03:56 ENE 3 10 Clear CLR 51 47     86%     30.1 30.06      
Jun 21 02:56 Calm 10 Clear CLR 52 47     83%     30.08 30.05      
Jun 21 01:56 Calm 10 Clear CLR 54 47     77%     30.08 30.04      
Jun 21 00:56 Calm 10 Clear CLR 56 48     75%     30.09 30.04      
Jun 20 23:56 Calm 10 Clear CLR 59 49     69%     30.09 30.04      
Jun 20 22:56 Calm 10 Mostly Clear FEW070 65 49     56%     30.08 30.03      
Jun 20 21:56 WNW 6 10 Mostly Cloudy SCT070 BKN080 66 50     56%     30.08 30.03      
Jun 20 20:56 Calm 10 Clear CLR 66 51     59%     30.06 30.03      
Jun 20 19:56   10 Cloudy BKN070 BKN090 OVC110 70 51     51%     30.04 30.01      
Jun 20 18:56 Calm 10 Clear CLR 77 50     39%   76 30 29.97      
Jun 20 17:56 Calm 10 Clear CLR 77 50     39%   76 30 29.98      
Jun 20 16:56 Calm 10 Clear CLR 80 50     35%   79 30 29.98      
Jun 20 15:56 ESE 3 10 Clear CLR 85 48     28%   83   29.98      
Jun 20 14:56 3 10 Clear CLR 84 47     27%   82   29.99      
Jun 20 13:56 Calm 10 Clear CLR 85 47     27%   82   29.99      
Jun 20 12:56   10 Clear CLR 84 45     26%   82 30.04 30      
Jun 20 11:56 Calm 10 Clear CLR 82 48     31%   81 30.04 30      
Jun 20 10:56 Calm 10 Clear CLR 80 51     36%   79 30.04 30      
Jun 20 09:56 Calm 10 Clear CLR 77 50     39%   76 30.05 30      
Jun 20 08:56 Calm 10 Clear CLR 70 51     51%     30.06 30.02      
Jun 20 07:56 Calm 10 Clear CLR 64 52     65%     30.06 30.02      
Jun 20 06:56 Calm 10 Clear CLR 56 48     75%     30.06 30.03      
Jun 20 05:56 Calm 10 Clear CLR 51 46     83%     30.06 30.03      
Jun 20 04:56 Calm 10 Clear CLR 49 46     90%     30.06 30.03      
Jun 20 03:56 Calm 10 Clear CLR 51 46     83%     30.06 30.03      
Jun 20 02:56 Calm 10 Clear CLR 51 46     83%     30.08 30.04      
Jun 20 01:56 3 10 Clear CLR 54 47     77%     30.08 30.04      
Jun 20 00:56 Calm 10 Clear CLR 56 47     72%     30.09 30.05      
Jun 19 23:56 Calm 10 Clear CLR 58 48     70%     30.09 30.05      
Jun 19 22:56 Calm 10 Clear   59 49     69%     30.09 30.05      
Jun 19 21:56 Calm 10 Clear CLR 62 51     67%     30.09 30.06      
Jun 19 20:56 Calm 10 Clear CLR 68 53     59%     30.08 30.04      
Jun 19 19:56 Calm 10 Clear CLR 73 50     44%   72 30.06 30.03      
Jun 19 18:56 Calm 10 Clear CLR 75 48     38%   74 30.05 30.04      
Jun 19 17:56 Calm 10 Clear CLR 81 45     28%   80 30.05 30.03      
Jun 19 16:56 3 10 Partly Cloudy SCT085 81 47     30%   80 30.07 30.04      
Jun 19 15:56 Calm 10 Clear CLR 82 48     31%   81   30.05      
Jun 19 14:56 3 10 Clear CLR 83 47     28%   81   30.06      
Jun 19 13:56 3 10 Clear CLR 82 47     29%   80   30.07      
Jun 19 13:22 Calm 3 Haze CLR 81 48     32%   80          
Jun 19 13:18 Calm 1.75 Haze FEW002 82 49     32%   81          
Jun 19 12:56 3 6 Haze CLR 79 47     32%   78 30.11 30.08      
Jun 19 11:56 Calm 10 Clear   79 49     35%   78 30.13 30.1      
Jun 19 10:56 Calm 10 Clear CLR 78 50     37%   77   30.1      
Jun 19 09:56 Calm 10 Clear CLR 71 47     42%   70 30.15 30.12      
Jun 19 08:56 Calm 10 Clear CLR 68 48     49%     30.14 30.11      
Jun 19 07:56 Calm 10 Clear CLR 61 48     62%     30.16 30.14      
Jun 19 06:56 Calm 10 Clear CLR 50 45     83%     30.15 30.14      
Jun 19 05:56 Calm 10 Clear CLR 45 42     90%     30.14 30.14      
Jun 19 04:56 Calm 10 Clear CLR 48 42     80%     30.14 30.13      
Jun 19 03:56 Calm 10 Clear CLR 47 42     83%     30.14 30.13      
Jun 19 02:56 NE 3 10 Clear   49 43     80% 48   30.14 30.12      
Jun 19 01:56 Calm 10 Clear CLR 51 44     77%     30.14 30.11      
Jun 19 00:56 Calm 10 Clear CLR 52 44     74%     30.14 30.12      
Jun 18 23:56 Calm 10 Clear CLR 54 45     72%     30.14 30.11      
Jun 18 22:56 ENE 3 10 Clear CLR 58 44     60%     30.13 30.11      
Jun 18 21:56 NE 3 10 Mostly Cloudy BKN110 63 45     52%     30.11 30.08      
Jun 18 20:56 3 10 Mostly Cloudy BKN100 67 44     44%     30.09 30.06      
Jun 18 19:56 3 10 Clear CLR 69 42     38%     30.08 30.06      
Jun 18 18:56 7 10 Mostly Clear FEW110 73 42     33%   72 30.07 30.06      
Jun 18 17:56 3 10 Mostly Clear FEW085 76 41     29%   75 30.05 30.05      
Jun 18 16:56 5 10 Mostly Cloudy BKN120 77 44     31%   76 30.06 30.06      
Jun 18 15:56 6 10 Mostly Cloudy BKN110 76 41     29%   75   30.05      
Jun 18 14:56 WNW 9 10 Clear CLR 78 42     28%   77   30.05      
Jun 18 13:56 6 10 Clear CLR 79 45     30%   78   30.06      
Jun 18 12:56 7 10 Clear CLR 74 44     34%   73   30.06      
Jun 18 11:56 6 10 Clear CLR 75 46     36%   74   30.06      
Jun 18 10:56 7 10 Clear CLR 72 45     38%   71   30.06      
May 15 07:56 Calm 10 Cloudy OVC019 56 51     84%     29.99 29.98      
May 14 17:56 Calm 10 Clear   75 39     27%   74   29.9      
May 14 10:56 Calm 10 Clear CLR 71 47     42%   70   29.97      
May 14 01:56 Calm 10 Clear CLR 50 46     86%     30 29.98      
May 13 03:56 Calm 10 Clear CLR 46 42     86%     29.96 29.97      
May 11 17:56 NW 10 10 Clear CLR 58 36     44%     30 30.03      
May 11 09:56 6 10 Cloudy OVC032 48 34     58% 45   30.07 30.11      
Jun 11 19:56 N 11 10 Cloudy FEW024 BKN038 OVC075 44 39     82% 38   29.93 30 0 0  
Jun 11 18:56 N 8 9 Light Rain BKN037 OVC048 44 40     85% 40   29.93 29.99 0    
Jun 11 12:56 3 5 Light Rain and Fog/Mist BKN023 OVC030 40 37     89% 38   29.93 30 0    
Jun 11 05:25 NW 3 9 Light Rain BKN008 OVC015 38 35     89% 36   29.9   0    
Jun 10 15:56 Calm 10 Light Rain FEW043 OVC060 55 41     59%     29.85 29.89 0    
Jun 10 14:56 3 10 Light Rain FEW021 BKN060 OVC075 57 41     55%     29.85 29.89 0    
Jun 09 00:56 Calm 10 Clear   45 43     93%     29.97 30.01      
Jun 08 08:17 3 6 Light Rain and Fog/Mist FEW027 BKN039 OVC055 46 44     93% 45   29.93   0    
Notice The following observation data may not be complete
Jun 08 04:07   4 Rain and Fog/Mist FEW007 BKN023 OVC037          %         0    
Jun 07 18:56 3 10 Clear CLR 67 40     37%     29.84 29.82      
Jun 07 16:56 Calm 10 Clear CLR 69 42     38%     29.87 29.86      
Jun 07 06:56 Calm 10 Clear CLR 56 47     72%     29.92 29.89      
Notice The following observation data may not be complete
Jun 07 05:56 Calm 10 Clear CLR   45      %     29.92 29.9      
Jun 06 11:56 Calm 10 Clear CLR 79 46     31%   78 29.98 29.95